SP9INZ-13 Weather Reports


time (UTC)temp
F
wind
direction
speed
knots
gust
knots
rain 1hr
in
rain 24hr
in
rain mn
in
humidity
%
barometer
mb
20260905194837 70 0.0 0.0 0.00 0.00 0.00 51 1022.9
20260905193239 69 0.0 0.0 0.00 0.00 0.00 50 1023.1
20260905191641 69 0.0 0.0 0.00 0.00 0.00 51 1022.8
20260905190043 69 0.0 0.0 0.00 0.00 0.00 53 1022.5
20260905184445 69 0.0 0.0 0.00 0.00 0.00 53 1022.6
20260905182847 70 0.0 0.0 0.00 0.00 0.00 52 1022.2
20260905181249 71 0.0 0.0 0.00 0.00 0.00 51 1022.1
20260905175651 71 0.0 0.0 0.00 0.00 0.00 51 1021.9
20260905174053 72 0.0 0.0 0.00 0.00 0.00 50 1021.6
20260905172455 70 0.0 0.0 0.00 0.00 0.00 51 1021.9
20260905170857 70 0.0 0.0 0.00 0.00 0.00 52 1021.8
20260905165259 70 0.0 0.0 0.00 0.00 0.00 52 1021.8
20260905163703 71 0.0 0.0 0.00 0.00 0.00 51 1021.5
20260905162103 71 0.0 0.0 0.00 0.00 0.00 50 1021.5
20260905160505 72 0.0 0.0 0.00 0.00 0.00 47 1021.9
20260905154908 73 0.0 0.0 0.00 0.00 0.00 44 1021.9
20260905153312 74 0.0 0.0 0.00 0.00 0.00 42 1021.7
20260905151712 75 0.0 0.0 0.00 0.00 0.00 44 1021.2
20260905150115 72 0.0 0.0 0.00 0.00 0.00 50 1020.9
20260905142802 75 0.0 0.0 0.00 0.00 0.00 47 1020.3
20260905141204 74 0.0 0.0 0.00 0.00 0.00 50 1020.4
20260905135606 73 0.0 0.0 0.00 0.00 0.00 48 1021.0
20260905134009 74 0.0 0.0 0.00 0.00 0.00 47 1020.9
20260905132410 73 0.0 0.0 0.00 0.00 0.00 50 1020.7
20260905130812 72 0.0 0.0 0.00 0.00 0.00 51 1021.0
20260905125214 71 0.0 0.0 0.00 0.00 0.00 52 1020.9
20260905123616 74 0.0 0.0 0.00 0.00 0.00 49 1020.7
20260905122019 72 0.0 0.0 0.00 0.00 0.00 50 1021.2
20260905120420 74 0.0 0.0 0.00 0.00 0.00 49 1020.7
20260905114822 74 0.0 0.0 0.00 0.00 0.00 50 1020.3
20260905113224 71 0.0 0.0 0.00 0.00 0.00 57 1019.9
20260905111626 73 0.0 0.0 0.00 0.00 0.00 55 1019.9
20260905110028 70 0.0 0.0 0.00 0.00 0.00 58 1020.0
20260905104430 68 0.0 0.0 0.00 0.00 0.00 61 1019.3
20260905102832 68 0.0 0.0 0.00 0.00 0.00 63 1018.9
20260905101235 70 0.0 0.0 0.00 0.00 0.00 58 1019.4
20260905095636 69 0.0 0.0 0.00 0.00 0.00 62 1018.9
20260905094038 68 0.0 0.0 0.00 0.00 0.00 64 1018.7
20260905092441 67 0.0 0.0 0.00 0.00 0.00 65 1018.9
20260905090842 66 0.0 0.0 0.00 0.00 0.00 69 1018.4
20260905085244 67 0.0 0.0 0.00 0.00 0.00 69 1017.9
20260905083827 67 0.0 0.0 0.00 0.00 0.00 71 1017.4
20260905083646 67 0.0 0.0 0.00 0.00 0.00 71 1017.4
20260905082048 66 0.0 0.0 0.00 0.00 0.00 72 1017.7
20260905080450 65 0.0 0.0 0.00 0.00 0.00 76 1018.2
20260905074852 66 0.0 0.0 0.00 0.00 0.00 74 1017.7
20260905073254 66 0.0 0.0 0.00 0.00 0.00 74 1017.4
20260905071656 64 0.0 0.0 0.00 0.00 0.00 76 1017.7
20260905064501 63 0.0 0.0 0.00 0.00 0.00 76 1017.8
20260905062903 64 0.0 0.0 0.00 0.00 0.00 75 1017.2
20260905061306 65 0.0 0.0 0.00 0.00 0.00 73 1016.8
20260905061304 65 0.0 0.0 0.00 0.00 0.00 73 1016.8
20260905055706 63 0.0 0.0 0.00 0.00 0.00 77 1017.0
20260905054109 64 0.0 0.0 0.00 0.00 0.00 77 1016.6
20260905052512 63 0.0 0.0 0.00 0.00 0.00 79 1016.5
20260905052510 63 0.0 0.0 0.00 0.00 0.00 79 1016.5
20260905050913 64 0.0 0.0 0.00 0.00 0.00 78 1016.4
20260905045317 66 0.0 0.0 0.00 0.00 0.00 75 1015.7
20260905045315 66 0.0 0.0 0.00 0.00 0.00 75 1015.7
20260905043716 66 0.0 0.0 0.00 0.00 0.00 75 1015.1
20260905042118 64 0.0 0.0 0.00 0.00 0.00 78 1015.9
20260905040520 65 0.0 0.0 0.00 0.00 0.00 77 1015.3
20260905034922 66 0.0 0.0 0.00 0.00 0.00 78 1014.6
20260905033324 65 0.0 0.0 0.00 0.00 0.00 80 1014.5
20260905031726 66 0.0 0.0 0.00 0.00 0.00 78 1014.1
20260905030128 66 0.0 0.0 0.00 0.00 0.00 78 1013.8
20260905024530 65 0.0 0.0 0.00 0.00 0.00 79 1014.0
20260905022935 65 0.0 0.0 0.00 0.00 0.00 80 1014.4
20260905022931 65 0.0 0.0 0.00 0.00 0.00 80 1014.4
20260905021337 65 0.0 0.0 0.00 0.00 0.00 80 1014.2
20260905021334 65 0.0 0.0 0.00 0.00 0.00 80 1014.2
20260905015738 64 0.0 0.0 0.00 0.00 0.00 80 1014.2
20260905014137 65 0.0 0.0 0.00 0.00 0.00 79 1013.4
20260905012540 67 0.0 0.0 0.00 0.00 0.00 77 1013.3
20260905010942 66 0.0 0.0 0.00 0.00 0.00 78 1013.8
20260905005343 67 0.0 0.0 0.00 0.00 0.00 71 1013.2
20260905003745 67 0.0 0.0 0.00 0.00 0.00 69 1013.6
20260905002148 69 0.0 0.0 0.00 0.00 0.00 66 1013.4
20260905000550 69 0.0 0.0 0.00 0.00 0.00 64 1013.4
20260904234954 69 0.0 0.0 0.00 0.00 0.00 65 1013.7
20260904234952 69 0.0 0.0 0.00 0.00 0.00 65 1013.7
20260904233436 71 0.0 0.0 0.00 0.00 0.00 63 1012.6
20260904233353 71 0.0 0.0 0.00 0.00 0.00 63 1012.6
20260904231756 71 0.0 0.0 0.00 0.00 0.00 63 1012.7
20260904230159 72 0.0 0.0 0.00 0.00 0.00 61 1012.6
20260904224601 72 0.0 0.0 0.00 0.00 0.00 61 1012.4
20260904223002 73 0.0 0.0 0.00 0.00 0.00 61 1011.7
20260904221405 76 0.0 0.0 0.00 0.00 0.00 62 1010.2
20260904215806 77 0.0 0.0 0.00 0.00 0.00 61 1010.2
20260904214208 77 0.0 0.0 0.00 0.00 0.00 57 1010.0
20260904212611 77 0.0 0.0 0.00 0.00 0.00 57 1009.5
20260904211013 77 0.0 0.0 0.00 0.00 0.00 58 1009.5
20260904205414 77 0.0 0.0 0.00 0.00 0.00 58 1009.6
20260904203819 76 0.0 0.0 0.00 0.00 0.00 60 1009.4
20260904203817 76 0.0 0.0 0.00 0.00 0.00 60 1009.4
20260904202218 76 0.0 0.0 0.00 0.00 0.00 59 1009.5
20260904200620 77 0.0 0.0 0.00 0.00 0.00 59 1009.5